Easy to use

vPilot, FSInn, and Squawkbox

VATSIM has 3 different client software available to choose by the user. The 3 different softwares are relatively easy to use and enjoyable to the user's experience. The software's operating manual is available to download in case user has not been able to fully operate the software to get a real working pilot experience.

Radar that functions similarly to real ATC's radar

EuroScope & VRC

VATSIM uses an advanced radar client simulating real ATC experience in the real world. Although it said to be advanced, both radar clients are very easy to use. Another interesting point is VATSIM has the technology to break the limit between simulation and real life experience.

With VATSIM, you can learn more about aviation.
You can also discuss with other aviation geek.

Unforgettable Experience

Current Activity

No controllers currently online!

Pilot

Callsign Name Route
TGW281Greg Griffiths YBRM (945129)WADD-WSSS

*This information may not be up to date.

METAR

Airport Name - Location (ICAO) METAR
Sultan Hasanuddin - Makassar (WAAA)METAR WAAA 190400Z 06007KT 9999 FEW019 33/22 Q1008|NOSIG=
I Gusti Ngurah Rai - Denpasar (WADD)METAR WADD 190400Z 11014KT 9999 BKN016 26/24 Q1011|NOSIG=
Ahmad Yani - Semarang (WAHS)METAR WAHS 190400Z 10013KT 7000 FEW014 31/19 Q1009=
Juanda - Surabaya (WARR)METAR WARR 190400Z 12012KT 090V150 9999 FEW020 30/21 Q1010|NOSIG=
Soekarno Hatta - Jakarta (WIII)METAR WIII 190400Z 08009KT 050V120 9000 FEW020 32/19 Q1009|NOSIG=
Halim Perdana Kusuma - Jakarta (WIHH)METAR WIHH 190400Z 12008KT 6000 SCT020 33/19 Q1009|NOSIG=
Kualanamu International Airport - Deli Serdang (WIMM)METAR WIMM 190400Z 12009KT 9999 SCT017 29/25 Q1008|NOSIG=

*METAR resource from BMKG. This information may not be up to date.

VATSIM Indonesia vACC VATSIM South East Asia VATSIM Asia